Find Beidou DW 45

NORAD ID: 44231 Int'l Des: 2019-027 Owner: CNSA Country: CN Constellation: BeiDou operational
HEOCIRCULARGSO

現在のビュー

3D地球を読み込み中...

About Beidou DW 45

Beidou DW 45 (NORAD 44231) is a BeiDou constellation satellite launched May 17, 2019 by CNSA of CN. It operates in HEO, CIRCULAR, GSO orbit with a mass of 3060.00 kg.

Beidou DW 45について

説明を読み込み中...

次回通過

Passes for default location (London). Set your location on the main map for personalized predictions.

高度履歴

Loading altitude history...

軌道要素

1 44231U 19027A 26167.60882545 -.00000250 00000-0 00000-0 0 9991
2 44231 1.6562 74.4932 0010217 281.8426 272.2602 1.00270903 26075
Epoch: Jun 16, 2026 • Age: 3 hours

現在のステータス

高度 35752.1 km
速度 3.08 km/s
衛星直下点 -1.52°S, 144.47°E
打ち上げ日 May 17, 2019
運用期間 7 years
タイプ navigation

技術仕様

分類 Payload
質量 3060.00 kg
乾燥質量 1700.00 kg
総質量 3060.00 kg
長さ 3.00 m
直径 1.70 m
スパン 18.00 m
形状 Box + 2 Pan
製造者 CAST
バスタイプ DFH-3B
フェーズステータス In Orbit
所有者/国 CNSA/CN

Most Searched